Weather History for KMWT - January, 2014

Change the Weather History Date:

Tuesday, January 28, 2014

  Actual Average (KHOT) Record (KHOT)
Temperature  
Mean Temperature 26 °F -  
Max Temperature 33 °F 54 °F 78 °F (1975)
Min Temperature 14 °F 31 °F 10 °F (1963)
Degree Days  
Heating Degree Days 40    
Moisture  
Dew Point 5 °F    
Average Humidity 52    
Maximum Humidity 74    
Minimum Humidity 27    
Precipitation  
Precipitation 0.00 in - - ()
Sea Level Pressure  
Sea Level Pressure 30.44 in    
Wind  
Wind Speed 3 mph (NNW)    
Max Wind Speed 7 mph    
Max Gust Speed -    
Visibility 8 miles    
Events Snow    
Averages and records for this station are not official NWS values.
T = Trace of Precipitation, MM = Missing Value Source: NWS Daily Summary

Daily Weather History Graph

Daily Weather History Graph

Search for Another Location

Airport or City:

Trip Planner

Search our weather history database for the weather conditions in past years. The results will help you decide how hot, cold, wet, or windy it might be!

Date:

Astronomy

Jan. 28, 2014 Rise Set
Actual Time 7:15 AM CST 5:39 PM CST
Civil Twilight 6:48 AM CST 6:06 PM CST
Nautical Twilight 6:18 AM CST 6:36 PM CST
Astronomical Twilight 5:48 AM CST 7:06 PM CST
Moon 4:55 AM CST (1/28) 3:32 PM CST (1/28)
Length of Visible Light 11h 18m
Length of Day
10h 24m
Waning Crescent, 7% of the Moon is Illuminated
Jan 28
Waning Crescent
Jan 30
New
Feb 6
First Quarter
Feb 14
Full
Feb 22
Last Quarter

Hourly Weather History & Observations

Time (CST) Temp. Windchill Dew Point Humidity Pressure Visibility Wind Dir Wind Speed Gust Speed Precip Events Conditions
12:53 AM 23.0 °F 17.0 °F -5.1 °F 29% 30.39 in 10.0 mi Variable 4.6 mph - N/A   Overcast
1:53 AM 23.0 °F - -4.0 °F 31% 30.40 in 10.0 mi Calm Calm - N/A   Overcast
2:53 AM 21.9 °F 14.5 °F -4.0 °F 32% 30.40 in 10.0 mi Variable 5.8 mph - N/A   Overcast
3:53 AM 19.9 °F 14.9 °F 3.9 °F 50% 30.40 in 10.0 mi Variable 3.5 mph - N/A   Overcast
4:53 AM 19.0 °F 13.9 °F 10.0 °F 68% 30.42 in 10.0 mi Variable 3.5 mph - N/A   Overcast
4:56 AM - - - N/A% - - North - - N/A   Unknown
5:53 AM 18.0 °F 8.7 °F 8.1 °F 65% 30.43 in 10.0 mi Variable 6.9 mph - N/A   Overcast
6:53 AM 18.0 °F 12.7 °F 8.1 °F 65% 30.46 in 10.0 mi Variable 3.5 mph - N/A   Overcast
7:53 AM 18.0 °F - 10.9 °F 74% 30.48 in 2.5 mi Calm Calm - 0.00 in Snow Light Snow
8:01 AM 18.0 °F 12.7 °F 10.9 °F 74% 30.43 in 1.5 mi Variable 3.5 mph - 0.00 in Snow Light Snow
8:29 AM 18.0 °F 12.7 °F 10.9 °F 74% 30.43 in 2.0 mi Variable 3.5 mph - 0.00 in Snow Light Snow
8:53 AM 18.0 °F 11.1 °F 10.9 °F 74% 30.50 in 1.5 mi Variable 4.6 mph - 0.00 in Snow Light Snow
9:04 AM 18.0 °F - 10.9 °F 74% 30.45 in 2.5 mi Calm Calm - 0.00 in Snow Light Snow
9:11 AM 18.0 °F 11.1 °F 10.9 °F 74% 30.45 in 3.0 mi Variable 4.6 mph - 0.00 in Snow Light Snow
9:53 AM 19.9 °F 12.1 °F 10.9 °F 68% 30.51 in 7.0 mi Variable 5.8 mph - 0.00 in Snow Light Snow
10:53 AM 23.0 °F - 12.0 °F 63% 30.52 in 9.0 mi Calm Calm - 0.00 in Snow Light Snow
11:00 AM 23.0 °F 15.8 °F 10.9 °F 60% 30.46 in 9.0 mi Variable 5.8 mph - 0.00 in Snow Light Snow
11:53 AM 24.1 °F 18.2 °F 9.0 °F 53% 30.50 in 9.0 mi Variable 4.6 mph - 0.00 in   Partly Cloudy
12:53 PM 28.9 °F 21.9 °F 6.1 °F 38% 30.45 in 10.0 mi North 6.9 mph - 0.00 in Snow Light Snow
1:53 PM 30.0 °F 24.1 °F 3.9 °F 33% 30.41 in 10.0 mi Variable 5.8 mph - 0.00 in   Clear
2:53 PM 32.0 °F 27.5 °F 1.0 °F 27% 30.38 in 9.0 mi Variable 4.6 mph - 0.00 in Snow Light Snow
3:53 PM 33.1 °F - 1.9 °F 27% 30.39 in 9.0 mi North - - 0.00 in   Clear
4:53 PM 32.0 °F 27.5 °F 1.0 °F 27% 30.38 in 9.0 mi NNW 4.6 mph - 0.00 in Snow Light Snow
5:53 PM 28.0 °F 24.2 °F -0.0 °F 30% 30.40 in 10.0 mi NNW 3.5 mph - 0.00 in   Clear
6:53 PM 25.0 °F - -0.0 °F 34% 30.43 in 10.0 mi Calm Calm - N/A   Clear
7:53 PM 21.0 °F - 3.0 °F 46% 30.44 in 10.0 mi Calm Calm - N/A   Clear
8:53 PM 19.9 °F 14.9 °F 3.0 °F 48% 30.44 in 10.0 mi West 3.5 mph - N/A   Clear
9:53 PM 19.9 °F - 1.0 °F 44% 30.45 in 10.0 mi Calm Calm - N/A   Clear
10:53 PM 18.0 °F - 6.1 °F 60% 30.46 in 10.0 mi Calm Calm - N/A   Clear
11:53 PM 14.0 °F - 5.0 °F 67% 30.45 in 10.0 mi Calm Calm - N/A   Clear